SCP
-0 -0 -0 -0 -0 -0 -0 -0 -0 -0 -0 -0 -0 -0 -0 -0 -0 -0 0 0 0 0
-0 -0 -0 0 -0 -0 -0 -0 -0 -0 -0 -0 -0 -0 -0 -0 -0 -0 -0 0 0 0
-0 -0 -0 -0 0 0 0 0 -0 -0 -0 -0 -0 -0 -0 -0 -0 -0 -0 -0 0 0
-0 -0 -0 -0 0 0 0 -0 -0 -0 -0 -0 -0 -0 -0 -0 -0 -0 0 0 0 0
0 0 -0 -0 0 0 0 0 0 -0 -0 -0 -0 -0 -0 -0 -0 -0 0 0 0 0
0 0 -0 -0 0 0 0 0 0 0 -0 0 -0 0 -0 -0 -0 -0 -0 0 0 0
0 0 0 0 0 0 0 0 -0 0 0 0 0 0 -0 -0 -0 -0 -0 0 0 0
0 0 0 0 0 0 0 -0 0 0 0 0 0 0 0 0 -0 -0 0 0 0 0
0 0 0 0 0 0 0 0 0 0 0 0 0 0 -0 0 0 0 0 0 0 0
0 0 0 0 0 0 0 0 0 0 0 0 0 0 0 0 0 0 0 0 0 0
0 0 0 0 0 0 0 0 0 0 0 0 0 0 0 0 0 0 0 0 0 0
0 0 0 0 0 0 0 0 0 0 0 0 0 0 0 0 0 0 0 0 0 0
0 0 0 0 0 0 0 0 0 0 0 0 0 0 0 0 0 0 0 0 0 0
0 0 0 0 0 0 0 0 0 0 0 0 0 0 0 0 0 0 0 0 -0 0
Wind_Speed_500mb
73 69 68 70 73 74 74 72 73 74 75 74 73 75 78 76 71 68 63 59 60 66
71 67 69 70 70 72 73 75 74 72 75 76 78 76 75 78 78 73 69 64 59 61
70 69 69 71 73 74 74 73 75 76 75 76 77 80 79 76 76 78 75 70 64 58
72 73 77 77 75 76 78 79 77 76 77 79 81 78 79 78 77 75 78 76 71 64
74 76 82 81 78 78 80 78 77 76 78 80 79 78 77 76 77 74 75 78 81 76
79 82 89 84 82 82 82 81 77 76 77 78 78 75 72 73 74 72 73 76 82 83
82 90 88 84 85 87 86 83 79 74 75 76 74 70 71 71 72 73 73 75 81 84
88 87 83 86 89 90 88 82 77 76 74 73 70 68 70 72 73 73 74 78 81 85
86 83 86 88 91 91 87 82 75 73 74 73 68 68 69 72 70 71 72 78 83 87
81 86 86 88 92 92 87 80 74 72 71 72 66 66 70 70 67 69 70 74 80 87
81 82 86 93 93 89 83 79 75 73 71 73 67 66 69 69 68 70 70 70 74 83
78 84 87 90 87 82 80 77 73 72 74 73 71 65 67 68 68 70 73 70 72 81
73 78 83 84 82 76 74 74 73 73 72 72 72 64 67 64 64 71 73 72 75 78
70 74 79 81 76 73 71 72 72 73 72 71 69 66 67 66 61 65 74 78 76 75
Wind_Direction_500mb
341 335 336 337 336 337 337 337 338 338 338 338 334 329 326 325 326 324 316 309 298 289
338 333 330 329 330 330 331 330 330 332 332 334 336 332 326 323 322 322 320 312 305 298
335 331 329 326 325 325 325 325 324 325 327 329 331 333 328 323 321 319 319 315 308 302
332 330 330 327 324 324 322 322 321 321 322 324 325 327 327 323 321 319 318 317 309 303
327 326 328 325 323 324 323 320 318 318 319 320 321 322 324 321 318 317 318 318 313 306
325 323 324 322 321 320 321 320 317 316 318 320 321 320 321 319 317 314 313 317 316 309
322 321 320 319 319 319 319 318 315 315 317 319 320 322 321 318 315 312 312 313 314 312
318 318 315 315 316 318 318 316 314 315 317 318 319 322 322 319 314 311 310 311 314 312
315 314 314 313 314 316 316 314 314 314 318 318 320 323 321 318 311 308 307 311 315 314
312 312 312 312 312 313 315 313 312 314 317 318 321 327 324 321 312 309 305 308 315 316
311 312 313 312 311 311 311 311 312 313 316 317 322 326 325 323 315 308 307 307 316 319
313 315 316 315 313 312 309 309 310 312 314 316 319 323 325 324 317 311 310 309 314 320
317 319 319 317 315 313 310 309 309 310 312 314 316 321 322 326 319 314 315 310 309 321
319 322 322 318 317 314 312 310 309 310 311 312 316 319 320 323 322 317 316 311 310 321
Wind_Speed_850mb
73 69 68 70 73 74 74 72 73 74 75 74 73 75 78 76 71 68 63 59 60 66
71 67 69 70 70 72 73 75 74 72 75 76 78 76 75 78 78 73 69 64 59 61
70 69 69 71 73 74 74 73 75 76 75 76 77 80 79 76 76 78 75 70 64 58
72 73 77 77 75 76 78 79 77 76 77 79 81 78 79 78 77 75 78 76 71 64
74 76 82 81 78 78 80 78 77 76 78 80 79 78 77 76 77 74 75 78 81 76
79 82 89 84 82 82 82 81 77 76 77 78 78 75 72 73 74 72 73 76 82 83
82 90 88 84 85 87 86 83 79 74 75 76 74 70 71 71 72 73 73 75 81 84
88 87 83 86 89 90 88 82 77 76 74 73 70 68 70 72 73 73 74 78 81 85
86 83 86 88 91 91 87 82 75 73 74 73 68 68 69 72 70 71 72 78 83 87
81 86 86 88 92 92 87 80 74 72 71 72 66 66 70 70 67 69 70 74 80 87
81 82 86 93 93 89 83 79 75 73 71 73 67 66 69 69 68 70 70 70 74 83
78 84 87 90 87 82 80 77 73 72 74 73 71 65 67 68 68 70 73 70 72 81
73 78 83 84 82 76 74 74 73 73 72 72 72 64 67 64 64 71 73 72 75 78
70 74 79 81 76 73 71 72 72 73 72 71 69 66 67 66 61 65 74 78 76 75
Wind_Direction_850mb
341 335 336 337 336 337 337 337 338 338 338 338 334 329 326 325 326 324 316 309 298 289
338 333 330 329 330 330 331 330 330 332 332 334 336 332 326 323 322 322 320 312 305 298
335 331 329 326 325 325 325 325 324 325 327 329 331 333 328 323 321 319 319 315 308 302
332 330 330 327 324 324 322 322 321 321 322 324 325 327 327 323 321 319 318 317 309 303
327 326 328 325 323 324 323 320 318 318 319 320 321 322 324 321 318 317 318 318 313 306
325 323 324 322 321 320 321 320 317 316 318 320 321 320 321 319 317 314 313 317 316 309
322 321 320 319 319 319 319 318 315 315 317 319 320 322 321 318 315 312 312 313 314 312
318 318 315 315 316 318 318 316 314 315 317 318 319 322 322 319 314 311 310 311 314 312
315 314 314 313 314 316 316 314 314 314 318 318 320 323 321 318 311 308 307 311 315 314
312 312 312 312 312 313 315 313 312 314 317 318 321 327 324 321 312 309 305 308 315 316
311 312 313 312 311 311 311 311 312 313 316 317 322 326 325 323 315 308 307 307 316 319
313 315 316 315 313 312 309 309 310 312 314 316 319 323 325 324 317 311 310 309 314 320
317 319 319 317 315 313 310 309 309 310 312 314 316 321 322 326 319 314 315 310 309 321
319 322 322 318 317 314 312 310 309 310 311 312 316 319 320 323 322 317 316 311 310 321